Location: Izdebno
(52.6670°N, 16.2170°E)
Time: 11:35:58
(UTC+02:00)

A-11 Canister half - Pass Details

Date: 14 February 2023
Orbit: 1526 x 1682 km, 47.3° (Epoch: 26 March)

Event Time Altitude Azimuth Distance (km) Brightness Sun altitude
Rises 06:01:45 0° 265° (W) 4,682 - -11.5°
Reaches altitude 10° 06:04:49 10° 263° (W) 3,696 - -11.1°
Exits shadow 06:05:15 12° 262° (W) 3,563 10.3 -11.0°
Maximum altitude 06:13:56 64° 185° (S) 1,676 9.2 -9.7°
Drops below altitude 10° 06:23:10 10° 107° (ESE) 3,736 12.7 -8.3°
Sets 06:26:17 0° 105° (ESE) 4,736 14.1 -7.8°
